#�ϑ�����,���ϕ���,���ϕ���,�ő啗��,�ő啗����������,�ő�u�ԕ���,�ő�u�ԕ�����������
#(�N����),(m/s)   ,(16����),(m/s)   ,(16����)        ,(m/s)       ,(16����)            
2015/2/3 0:01,1.5,15,1.5,16,4.1,15
2015/2/3 0:02,1.7,13,1.7,14,6.9,13
2015/2/3 0:03,1.9,13,1.9,13,5.2,12
2015/2/3 0:04,2.1,13,2.1,13,4.7,12
2015/2/3 0:05,2.2,13,2.2,13,4.7,16
2015/2/3 0:06,2.5,13,2.5,13,5.7,16
2015/2/3 0:07,2.5,13,2.5,13,2.7,15
2015/2/3 0:08,2.7,14,2.7,14,3.7,10
2015/2/3 0:09,2.7,13,2.8,13,3.6,11
2015/2/3 0:10,2.5,13,2.7,13,2.7,13
2015/2/3 0:11,2.6,13,2.6,13,3,12
2015/2/3 0:12,2.5,13,2.6,13,3.5,12
2015/2/3 0:13,2.2,13,2.4,13,2.5,12
2015/2/3 0:14,2.1,13,2.2,13,1.5,14
2015/2/3 0:15,1.9,12,2.1,13,1,12
2015/2/3 0:16,1.6,12,1.8,13,2.4,12
2015/2/3 0:17,1.7,12,1.7,13,2.7,14
2015/2/3 0:18,1.8,12,1.8,13,4.4,15
2015/2/3 0:19,1.9,13,1.9,13,4.7,16
2015/2/3 0:20,1.9,13,1.9,13,4.3,11
2015/2/3 0:21,2,13,2,13,4.8,11
2015/2/3 0:22,2,13,2,13,3.9,11
2015/2/3 0:23,2,13,2,13,3.2,13
2015/2/3 0:24,2.1,13,2.1,13,3.6,1
2015/2/3 0:25,2.1,14,2.1,13,1.5,16
2015/2/3 0:26,2.2,14,2.2,14,3.2,10
2015/2/3 0:27,2.2,14,2.2,14,2.9,11
2015/2/3 0:28,2,14,2.2,14,1.4,13
2015/2/3 0:29,1.7,14,2,14,1,12
2015/2/3 0:30,1.5,14,1.7,14,0.6,12
2015/2/3 0:31,1.2,13,1.5,14,0.4,8
2015/2/3 0:32,1.1,14,1.2,14,3.6,15
2015/2/3 0:33,1.1,14,1.1,14,3.1,15
2015/2/3 0:34,1,14,1.1,14,2.9,15
2015/2/3 0:35,1.2,14,1.2,14,3.5,15
2015/2/3 0:36,1.2,14,1.2,14,4.7,15
2015/2/3 0:37,1.4,14,1.4,14,5.5,15
2015/2/3 0:38,1.6,14,1.6,14,6.4,16
2015/2/3 0:39,2,14,2,14,6.9,15
2015/2/3 0:40,2.4,14,2.4,14,8.1,16
2015/2/3 0:41,2.9,15,2.9,15,9.3,15
2015/2/3 0:42,3.3,15,3.3,15,9.3,16
2015/2/3 0:43,3.6,15,3.6,15,7.6,15
2015/2/3 0:44,3.7,15,3.7,15,4.8,14
2015/2/3 0:45,3.7,14,3.7,15,4.9,12
2015/2/3 0:46,4,14,4,14,6.8,15
2015/2/3 0:47,4,14,4,14,6,15
2015/2/3 0:48,4,14,4,14,6.1,14
2015/2/3 0:49,3.9,14,4,14,3.9,15
2015/2/3 0:50,3.7,14,3.8,14,4.4,13
2015/2/3 0:51,3.4,14,3.7,14,3.5,13
2015/2/3 0:52,3.1,13,3.3,14,4.7,11
2015/2/3 0:53,3,13,3.1,14,3.9,11
2015/2/3 0:54,3,13,3,14,4.1,13
2015/2/3 0:55,2.9,13,2.9,14,4.7,15
2015/2/3 0:56,2.7,13,2.9,14,5.8,15
2015/2/3 0:57,2.7,13,2.7,14,4.7,16
2015/2/3 0:58,2.6,13,2.7,14,4.5,16
2015/2/3 0:59,2.5,13,2.6,14,3.1,16
2015/2/3 1:00,2.6,13,2.6,14,6.2,15
2015/2/3 1:01,2.7,14,2.7,14,4.8,11
2015/2/3 1:02,2.7,14,2.7,13,4.9,16
2015/2/3 1:03,2.9,14,2.9,13,6.5,14
2015/2/3 1:04,3,14,3,14,4.4,13
2015/2/3 1:05,2.9,14,3,14,3.7,15
2015/2/3 1:06,2.9,14,2.9,14,3.6,13
2015/2/3 1:07,2.8,14,2.9,14,3.2,12
2015/2/3 1:08,2.8,14,2.8,14,3.6,14
2015/2/3 1:09,2.8,13,2.8,14,2.6,11
2015/2/3 1:10,2.5,13,2.8,14,1.8,10
2015/2/3 1:11,2.3,13,2.5,14,1.9,16
2015/2/3 1:12,2.2,13,2.3,14,3.9,14
2015/2/3 1:13,2.2,13,2.2,14,6.7,16
2015/2/3 1:14,2.1,13,2.2,14,5.8,16
2015/2/3 1:15,2,13,2.1,14,3.3,1
2015/2/3 1:16,2,14,2,14,4.2,14
2015/2/3 1:17,2.3,14,2.3,14,6.8,15
2015/2/3 1:18,2.4,14,2.4,14,5.8,14
2015/2/3 1:19,2.7,14,2.7,13,8.9,15
2015/2/3 1:20,3,15,3,15,8.7,15
2015/2/3 1:21,3.2,15,3.2,15,5.4,1
2015/2/3 1:22,3.5,15,3.5,15,8.1,14
2015/2/3 1:23,3.9,15,3.9,15,10.7,15
2015/2/3 1:24,4.1,15,4.1,15,8.4,15
2015/2/3 1:25,4.4,15,4.4,15,7.2,15
2015/2/3 1:26,4.6,15,4.6,15,8.3,15
2015/2/3 1:27,4.6,15,4.6,15,6.4,14
2015/2/3 1:28,4.7,15,4.7,15,8.4,15
2015/2/3 1:29,4.6,15,4.7,15,6.4,15
2015/2/3 1:30,4.6,15,4.6,15,5.7,16
2015/2/3 1:31,4.7,15,4.7,15,5.8,14
2015/2/3 1:32,4.5,15,4.7,15,4.9,15
2015/2/3 1:33,4.1,15,4.5,15,4.1,14
2015/2/3 1:34,4,15,4.1,15,9.9,15
2015/2/3 1:35,4,15,4.1,15,7.1,16
2015/2/3 1:36,3.9,15,4,15,6.5,15
2015/2/3 1:37,3.8,15,3.9,15,6.1,14
2015/2/3 1:38,3.6,15,3.8,15,4.4,16
2015/2/3 1:39,3.5,15,3.6,15,5.4,16
2015/2/3 1:40,3.4,15,3.5,15,5.2,14
2015/2/3 1:41,3.3,15,3.4,15,3.9,16
2015/2/3 1:42,3.2,15,3.3,15,3.2,15
2015/2/3 1:43,3,15,3.2,15,3.2,15
2015/2/3 1:44,2.9,15,3.1,15,4.1,15
2015/2/3 1:45,2.8,15,2.9,15,4.4,16
2015/2/3 1:46,2.7,15,2.8,15,3.7,15
2015/2/3 1:47,2.5,15,2.6,15,2.4,15
2015/2/3 1:48,2.4,15,2.5,15,3.9,14
2015/2/3 1:49,2.5,15,2.5,15,8.7,15
2015/2/3 1:50,2.5,15,2.5,15,5.8,16
2015/2/3 1:51,2.5,15,2.6,15,5.1,15
2015/2/3 1:52,2.5,15,2.5,15,4.1,1
2015/2/3 1:53,2.7,16,2.7,15,3.6,2
2015/2/3 1:54,2.5,16,2.7,15,2.5,1
2015/2/3 1:55,2.4,16,2.5,15,2.4,16
2015/2/3 1:56,2.2,16,2.3,16,1.3,14
2015/2/3 1:57,2.1,16,2.2,16,1.4,12
2015/2/3 1:58,2,16,2.1,16,1.8,15
2015/2/3 1:59,1.8,16,2,16,2.5,16
2015/2/3 2:00,1.8,16,1.8,16,6.5,16
2015/2/3 2:01,1.9,16,1.9,16,5.1,16
2015/2/3 2:02,1.9,16,1.9,16,3.7,15
2015/2/3 2:03,2,16,2,16,6.3,15
2015/2/3 2:04,2.1,16,2.1,16,6.1,15
2015/2/3 2:05,2.4,15,2.4,15,5,16
2015/2/3 2:06,2.7,16,2.7,16,5.2,16
2015/2/3 2:07,3.1,15,3.1,16,7.8,15
2015/2/3 2:08,3.6,15,3.6,15,8.5,16
2015/2/3 2:09,3.9,15,3.9,15,8.1,15
2015/2/3 2:10,3.9,15,3.9,15,6.8,15
2015/2/3 2:11,4,15,4.1,15,8.1,15
2015/2/3 2:12,4.1,15,4.1,15,5.4,15
2015/2/3 2:13,4.1,15,4.1,15,5,15
2015/2/3 2:14,4.1,15,4.1,15,5.6,16
2015/2/3 2:15,4,15,4.1,15,3.9,1
2015/2/3 2:16,3.9,15,4,15,5,15
2015/2/3 2:17,3.6,15,3.9,15,3.9,1
2015/2/3 2:18,3.3,15,3.6,15,3.6,1
2015/2/3 2:19,3.1,16,3.3,15,3.8,15
2015/2/3 2:20,3,16,3,15,4.1,15
2015/2/3 2:21,2.7,16,2.9,15,4.7,16
2015/2/3 2:22,2.7,16,2.8,15,4.4,15
2015/2/3 2:23,2.6,16,2.7,15,3.5,15
2015/2/3 2:24,2.4,16,2.6,15,5.1,14
2015/2/3 2:25,2.4,16,2.4,15,3.1,15
2015/2/3 2:26,2.4,16,2.4,15,5.2,16
2015/2/3 2:27,2.5,16,2.5,15,6,16
2015/2/3 2:28,2.6,16,2.6,15,6.8,15
2015/2/3 2:29,2.5,15,2.6,16,3.5,14
2015/2/3 2:30,2.5,15,2.5,16,7,16
2015/2/3 2:31,2.7,15,2.7,16,11.4,14
2015/2/3 2:32,3,15,3,15,9.8,14
2015/2/3 2:33,3.5,15,3.5,15,12.3,14
2015/2/3 2:34,3.6,15,3.6,15,6.7,14
2015/2/3 2:35,3.7,15,3.7,15,4.4,15
2015/2/3 2:36,3.7,15,3.7,15,4.8,16
2015/2/3 2:37,3.8,15,3.8,15,6.8,15
2015/2/3 2:38,3.8,15,3.8,15,5.2,15
2015/2/3 2:39,3.9,15,3.9,15,5,15
2015/2/3 2:40,3.8,15,3.9,15,3.3,16
2015/2/3 2:41,3.5,15,3.8,15,3.5,16
2015/2/3 2:42,3.2,15,3.5,15,3.1,15
2015/2/3 2:43,2.6,15,3.1,15,2.2,16
2015/2/3 2:44,2.4,15,2.6,15,2.7,16
2015/2/3 2:45,2.5,15,2.5,15,4.3,13
2015/2/3 2:46,2.5,15,2.5,15,5.5,16
2015/2/3 2:47,2.4,15,2.5,15,5.5,15
2015/2/3 2:48,2.3,15,2.4,15,6.5,16
2015/2/3 2:49,2.7,15,2.7,15,11.5,15
2015/2/3 2:50,2.9,15,2.9,15,7.1,14
2015/2/3 2:51,2.9,15,2.9,15,4.3,16
2015/2/3 2:52,2.9,15,2.9,15,4.5,2
2015/2/3 2:53,3,15,3,15,4.2,1
2015/2/3 2:54,3,15,3.1,15,3.7,16
2015/2/3 2:55,3,16,3.1,15,5.2,16
2015/2/3 2:56,3,15,3,15,3.7,15
2015/2/3 2:57,3,15,3,15,5.5,14
2015/2/3 2:58,3,15,3,15,4.4,11
2015/2/3 2:59,2.6,15,2.9,15,4.4,12
2015/2/3 3:00,2.6,14,2.6,15,4.7,15
2015/2/3 3:01,2.7,15,2.7,15,6,16
2015/2/3 3:02,2.6,15,2.7,15,2.4,1
2015/2/3 3:03,2.5,15,2.6,15,1.4,1
2015/2/3 3:04,2.4,15,2.4,15,0.8,5
2015/2/3 3:05,2.3,15,2.3,16,4.3,14
2015/2/3 3:06,2.3,15,2.3,15,4.3,13
2015/2/3 3:07,2.2,15,2.3,15,3.3,1
2015/2/3 3:08,1.9,16,2.2,15,2.4,16
2015/2/3 3:09,1.7,16,1.9,15,1,7
2015/2/3 3:10,1.4,1,1.7,15,0.9,3
2015/2/3 3:11,1.2,1,1.4,15,2.6,12
2015/2/3 3:12,1.3,16,1.3,15,2.6,13
2015/2/3 3:13,1.3,15,1.3,15,3.2,15
2015/2/3 3:14,1.4,14,1.4,15,3,16
2015/2/3 3:15,1.4,14,1.5,15,3.8,14
2015/2/3 3:16,1.3,14,1.4,15,2,14
2015/2/3 3:17,1.2,14,1.3,15,2.4,14
2015/2/3 3:18,1.5,13,1.5,16,4.9,12
2015/2/3 3:19,1.8,13,1.8,13,5.5,12
2015/2/3 3:20,2.1,13,2.1,13,4.7,11
2015/2/3 3:21,2.3,12,2.3,13,4.1,10
2015/2/3 3:22,2.4,13,2.4,12,4.5,13
2015/2/3 3:23,2.5,13,2.5,13,4.7,12
2015/2/3 3:24,2.7,12,2.7,13,3.2,13
2015/2/3 3:25,2.6,12,2.7,13,2.6,9
2015/2/3 3:26,2.6,12,2.7,13,2.4,12
2015/2/3 3:27,2.7,12,2.7,13,3.2,13
2015/2/3 3:28,2.5,12,2.7,13,3,15
2015/2/3 3:29,2.3,12,2.5,13,3.1,15
2015/2/3 3:30,2.2,13,2.3,13,3.6,14
2015/2/3 3:31,2.1,13,2.2,13,3.3,14
2015/2/3 3:32,2.2,14,2.2,13,6.8,15
2015/2/3 3:33,2.2,14,2.2,13,5.2,15
2015/2/3 3:34,2,14,2.1,12,2.9,16
2015/2/3 3:35,2,14,2,12,3.1,14
2015/2/3 3:36,2.2,14,2.2,12,4.7,13
2015/2/3 3:37,2.4,14,2.4,12,4.7,13
2015/2/3 3:38,2.4,14,2.4,12,3,11
2015/2/3 3:39,2.4,14,2.4,14,5.2,15
2015/2/3 3:40,2.6,14,2.6,14,5.1,15
2015/2/3 3:41,2.7,14,2.7,14,4.9,14
2015/2/3 3:42,2.6,14,2.7,14,4.2,16
2015/2/3 3:43,2.4,14,2.6,14,4.4,13
2015/2/3 3:44,2.5,14,2.5,14,3.2,14
2015/2/3 3:45,2.6,14,2.6,14,5.1,16
2015/2/3 3:46,2.5,14,2.6,14,3.8,16
2015/2/3 3:47,2.4,14,2.5,14,3.6,13
2015/2/3 3:48,2.6,14,2.6,14,6.3,15
2015/2/3 3:49,2.5,14,2.6,14,5.1,15
2015/2/3 3:50,2.2,15,2.5,14,1.5,2
2015/2/3 3:51,2.2,15,2.2,14,6.7,14
2015/2/3 3:52,2.1,15,2.2,14,4.2,1
2015/2/3 3:53,2.2,15,2.2,14,4.4,1
2015/2/3 3:54,2.4,15,2.4,14,9.4,15
2015/2/3 3:55,2.5,15,2.5,14,7.2,16
2015/2/3 3:56,2.6,15,2.6,14,6,15
2015/2/3 3:57,2.7,15,2.7,15,4.8,14
2015/2/3 3:58,2.8,15,2.8,15,6.5,16
2015/2/3 3:59,3.1,15,3.1,15,7.7,15
2015/2/3 4:00,3.5,15,3.5,15,8.5,16
2015/2/3 4:01,3.4,15,3.5,15,6.9,16
2015/2/3 4:02,3.4,15,3.4,15,4.1,15
2015/2/3 4:03,3.4,15,3.4,15,3.9,15
2015/2/3 4:04,3.3,15,3.4,15,4.7,13
2015/2/3 4:05,3.2,15,3.3,15,3.9,13
2015/2/3 4:06,3,15,3.1,15,3.9,12
2015/2/3 4:07,3,14,3.1,15,3.7,12
2015/2/3 4:08,3,14,3,15,6.4,15
2015/2/3 4:09,2.8,14,3,15,4.4,15
2015/2/3 4:10,2.5,14,2.7,15,2.1,14
2015/2/3 4:11,2.4,14,2.5,15,4.8,14
2015/2/3 4:12,2.7,14,2.7,15,6.8,15
2015/2/3 4:13,2.9,14,2.9,15,6.9,14
2015/2/3 4:14,2.9,14,3,15,5.5,14
2015/2/3 4:15,2.8,14,2.9,15,2.6,15
2015/2/3 4:16,2.7,15,2.9,15,2.2,16
2015/2/3 4:17,2.7,15,2.7,14,4.3,15
2015/2/3 4:18,2.4,15,2.6,14,3.7,16
2015/2/3 4:19,2.3,15,2.4,14,3.2,14
2015/2/3 4:20,2.3,15,2.3,14,3,14
2015/2/3 4:21,2.1,15,2.3,14,2.7,1
2015/2/3 4:22,2.1,15,2.1,14,4.5,14
2015/2/3 4:23,1.8,15,2.1,14,3.2,16
2015/2/3 4:24,1.7,15,1.8,14,3.2,15
2015/2/3 4:25,1.8,15,1.8,14,4.5,16
2015/2/3 4:26,1.7,15,1.8,15,2.7,14
2015/2/3 4:27,1.6,15,1.7,15,1.3,16
2015/2/3 4:28,1.5,15,1.6,15,1.5,14
2015/2/3 4:29,1.4,16,1.5,15,0.5,5
2015/2/3 4:30,1.2,16,1.3,15,0.6,5
2015/2/3 4:31,1.1,16,1.2,15,1.1,16
2015/2/3 4:32,0.9,1,1.1,15,1.4,15
2015/2/3 4:33,0.9,1,0.9,15,2.5,1
2015/2/3 4:34,0.9,1,0.9,15,2.5,1
2015/2/3 4:35,0.9,1,0.9,15,3.2,15
2015/2/3 4:36,1.2,1,1.2,15,6.5,15
2015/2/3 4:37,1.4,16,1.4,15,3.9,14
2015/2/3 4:38,1.4,16,1.4,15,3.9,16
2015/2/3 4:39,1.6,16,1.6,16,4.2,16
2015/2/3 4:40,1.9,16,1.9,16,4.1,15
2015/2/3 4:41,2,16,2,16,3.7,1
2015/2/3 4:42,2.1,16,2.1,16,3,2
2015/2/3 4:43,2.1,16,2.1,16,2.9,2
2015/2/3 4:44,1.9,16,2.1,16,1.5,13
2015/2/3 4:45,1.9,15,1.9,16,1.1,12
2015/2/3 4:46,1.7,16,1.9,16,3.7,16
2015/2/3 4:47,1.6,16,1.7,16,3.6,15
2015/2/3 4:48,1.8,15,1.8,16,4.5,14
2015/2/3 4:49,1.8,15,1.8,16,5.7,15
2015/2/3 4:50,1.8,15,1.8,16,3.1,16
2015/2/3 4:51,2.1,15,2.1,16,7.7,15
2015/2/3 4:52,2.3,15,2.3,15,6.5,15
2015/2/3 4:53,2.4,15,2.4,15,4.4,15
2015/2/3 4:54,2.6,15,2.6,15,4.2,16
2015/2/3 4:55,2.7,15,2.7,15,4.1,16
2015/2/3 4:56,2.9,15,2.9,15,6.7,16
2015/2/3 4:57,2.8,15,2.9,15,3.5,16
2015/2/3 4:58,2.6,15,2.8,15,4.9,15
2015/2/3 4:59,2.6,15,2.6,15,3.9,13
2015/2/3 5:00,2.8,15,2.8,15,4.4,12
2015/2/3 5:01,2.6,15,2.8,15,6.5,14
2015/2/3 5:02,2.7,15,2.8,15,7.7,16
2015/2/3 5:03,2.7,15,2.8,15,5,15
2015/2/3 5:04,2.7,14,2.7,15,4.1,12
2015/2/3 5:05,2.5,14,2.7,15,1.5,1
2015/2/3 5:06,2.3,15,2.5,15,2.5,4
2015/2/3 5:07,2.4,15,2.4,15,3.2,1
2015/2/3 5:08,2.5,15,2.5,15,3.1,16
2015/2/3 5:09,2.4,15,2.5,15,2.9,10
2015/2/3 5:10,2.3,14,2.4,15,2.9,9
2015/2/3 5:11,2,14,2.2,15,2.9,9
2015/2/3 5:12,1.7,13,2,15,2.5,13
2015/2/3 5:13,1.5,12,1.7,15,2,10
2015/2/3 5:14,1.5,11,1.5,14,2.9,8
2015/2/3 5:15,1.5,11,1.5,14,1.4,6
2015/2/3 5:16,1.7,11,1.7,15,3.8,14
2015/2/3 5:17,1.6,11,1.7,15,2.2,13
2015/2/3 5:18,1.4,11,1.5,15,1.3,11
2015/2/3 5:19,1.3,11,1.4,15,1.3,12
2015/2/3 5:20,1.2,11,1.3,14,1.3,12
2015/2/3 5:21,1.1,12,1.2,14,0.6,5
2015/2/3 5:22,1,11,1.1,13,0.5,5
2015/2/3 5:23,0.9,11,0.9,11,1.4,8
2015/2/3 5:24,0.9,11,0.9,11,2.7,9
2015/2/3 5:25,0.9,11,1,11,2.2,8
2015/2/3 5:26,0.8,10,0.9,11,3.3,9
2015/2/3 5:27,0.8,10,0.8,11,1.9,8
2015/2/3 5:28,0.8,10,0.8,11,1.1,14
2015/2/3 5:29,0.9,10,0.9,11,3,10
2015/2/3 5:30,1,9,1,11,3.1,11
2015/2/3 5:31,1.2,10,1.2,10,2.7,10
2015/2/3 5:32,1.4,10,1.4,10,3,10
2015/2/3 5:33,1.5,10,1.5,10,2,12
2015/2/3 5:34,1.6,11,1.6,11,3.5,12
2015/2/3 5:35,1.7,11,1.7,11,3.3,13
2015/2/3 5:36,1.8,12,1.8,11,2.9,13
2015/2/3 5:37,1.8,12,1.8,11,3,16
2015/2/3 5:38,1.8,12,1.8,11,0.8,13
2015/2/3 5:39,1.7,12,1.8,11,1,13
2015/2/3 5:40,1.6,13,1.7,11,2.4,11
2015/2/3 5:41,1.6,13,1.6,11,2.9,11
2015/2/3 5:42,1.6,13,1.6,11,3.1,11
2015/2/3 5:43,1.8,12,1.8,11,3.8,11
2015/2/3 5:44,1.9,12,1.9,12,4.3,11
2015/2/3 5:45,2,12,2,12,3.8,11
2015/2/3 5:46,2,12,2,12,3.6,10
2015/2/3 5:47,2.1,11,2.1,11,2.6,11
2015/2/3 5:48,2.2,11,2.2,11,3,10
2015/2/3 5:49,2.2,11,2.2,11,2.2,16
2015/2/3 5:50,2.2,11,2.2,11,1.3,1
2015/2/3 5:51,2,12,2.2,11,0.6,15
2015/2/3 5:52,1.9,12,2,11,2,12
2015/2/3 5:53,1.7,12,1.9,11,2.5,13
2015/2/3 5:54,1.6,12,1.7,11,2.7,12
2015/2/3 5:55,1.5,12,1.6,11,2.7,11
2015/2/3 5:56,1.5,13,1.5,11,3.2,12
2015/2/3 5:57,1.6,13,1.6,11,3.1,12
2015/2/3 5:58,1.5,13,1.5,11,2.4,11
2015/2/3 5:59,1.7,12,1.7,11,3.7,12
2015/2/3 6:00,1.8,12,1.8,11,3.3,13
2015/2/3 6:01,1.9,12,1.9,12,2.7,12
2015/2/3 6:02,2.1,12,2.1,12,3.9,13
2015/2/3 6:03,2.3,12,2.3,12,3.9,13
2015/2/3 6:04,2.4,12,2.4,12,7.2,15
2015/2/3 6:05,2.5,13,2.5,12,6.8,16
2015/2/3 6:06,2.4,13,2.5,12,3.3,1
2015/2/3 6:07,2.3,13,2.3,12,3.9,12
2015/2/3 6:08,2.4,13,2.4,12,4.1,12
2015/2/3 6:09,2.3,13,2.4,12,2,14
2015/2/3 6:10,2.3,13,2.3,12,3.8,12
2015/2/3 6:11,2.4,12,2.4,12,3.8,8
2015/2/3 6:12,2.4,12,2.4,12,7.4,15
2015/2/3 6:13,2.4,13,2.5,12,4.4,15
2015/2/3 6:14,2.4,13,2.5,12,5.4,14
2015/2/3 6:15,2.3,13,2.3,13,5,15
2015/2/3 6:16,2.5,13,2.5,13,6.7,14
2015/2/3 6:17,2.6,13,2.6,13,3.8,10
2015/2/3 6:18,2.6,13,2.6,13,6,13
2015/2/3 6:19,2.7,14,2.7,13,3.9,15
2015/2/3 6:20,2.8,14,2.8,14,3.9,13
2015/2/3 6:21,2.8,14,2.8,14,3.6,12
2015/2/3 6:22,2.8,14,2.9,14,4.9,12
2015/2/3 6:23,2.8,13,2.8,14,4.9,13
2015/2/3 6:24,2.8,13,2.9,14,5.1,11
2015/2/3 6:25,2.8,13,2.9,14,5,12
2015/2/3 6:26,2.8,13,2.8,14,6.4,15
2015/2/3 6:27,3,13,3,13,6.9,15
2015/2/3 6:28,2.9,13,3,13,2.7,16
2015/2/3 6:29,2.8,13,2.9,13,2.9,16
2015/2/3 6:30,2.6,13,2.7,13,2.1,12
2015/2/3 6:31,2.6,14,2.6,13,3.8,15
2015/2/3 6:32,2.4,14,2.6,13,2.7,16
2015/2/3 6:33,2.2,14,2.4,13,2,3
2015/2/3 6:34,2,14,2.2,13,2,1
2015/2/3 6:35,1.9,14,1.9,13,2.6,14
2015/2/3 6:36,1.9,14,1.9,13,3.5,14
2015/2/3 6:37,1.6,14,1.8,13,3.2,12
2015/2/3 6:38,1.8,14,1.8,13,3.5,13
2015/2/3 6:39,2,13,2,13,3.6,13
2015/2/3 6:40,2.2,13,2.2,13,5.6,14
2015/2/3 6:41,2.2,13,2.2,14,4.1,14
2015/2/3 6:42,2.4,13,2.4,14,3.6,11
2015/2/3 6:43,2.5,13,2.5,13,3.8,10
2015/2/3 6:44,2.7,12,2.7,12,4.2,12
2015/2/3 6:45,2.7,12,2.7,12,3.1,10
2015/2/3 6:46,2.7,12,2.7,12,4.7,16
2015/2/3 6:47,2.7,12,2.7,12,4.1,15
2015/2/3 6:48,2.8,12,2.8,12,5.4,15
2015/2/3 6:49,2.9,13,2.9,13,5,15
2015/2/3 6:50,2.9,13,2.9,13,4.2,13
2015/2/3 6:51,2.7,13,2.9,13,2.6,13
2015/2/3 6:52,2.6,13,2.7,13,2,12
2015/2/3 6:53,2.5,13,2.6,13,2.4,12
2015/2/3 6:54,2.4,13,2.5,13,2.9,9
2015/2/3 6:55,2.5,13,2.5,13,4.5,9
2015/2/3 6:56,2.5,12,2.6,13,4.3,9
2015/2/3 6:57,2.3,12,2.5,13,3.2,8
2015/2/3 6:58,2,11,2.3,13,1.8,10
2015/2/3 6:59,1.7,11,2,13,1.6,13
2015/2/3 7:00,1.6,11,1.7,13,3.2,13
2015/2/3 7:01,1.8,11,1.8,13,4.3,11
2015/2/3 7:02,1.8,11,1.8,13,5.4,10
2015/2/3 7:03,1.9,11,1.9,12,3.5,11
2015/2/3 7:04,2,11,2,12,3.3,11
2015/2/3 7:05,2,11,2,12,3.2,12
2015/2/3 7:06,2,11,2,12,4.4,12
2015/2/3 7:07,2.2,11,2.2,12,3.6,12
2015/2/3 7:08,2.3,11,2.3,11,2.6,13
2015/2/3 7:09,2.4,11,2.4,11,2.7,12
2015/2/3 7:10,2.4,11,2.4,11,3.7,8
2015/2/3 7:11,2.2,11,2.3,11,3.5,8
2015/2/3 7:12,2.1,11,2.1,11,2.4,10
2015/2/3 7:13,2.1,12,2.2,11,4.3,13
2015/2/3 7:14,2.2,12,2.2,11,4.3,15
2015/2/3 7:15,2.2,12,2.2,11,3.2,13
2015/2/3 7:16,2,12,2.2,11,2.7,12
2015/2/3 7:17,2,13,2,11,2.5,14
2015/2/3 7:18,1.8,13,2,11,1.3,14
2015/2/3 7:19,1.7,13,1.8,11,1.8,14
2015/2/3 7:20,1.8,13,1.8,11,2.5,12
2015/2/3 7:21,1.9,13,1.9,11,2.6,13
2015/2/3 7:22,2,13,2,11,2.9,14
2015/2/3 7:23,2,13,2,12,3.1,12
2015/2/3 7:24,1.9,13,2,12,3.5,11
2015/2/3 7:25,1.9,13,1.9,12,2.6,10
2015/2/3 7:26,1.9,13,1.9,12,2.5,11
2015/2/3 7:27,1.9,13,1.9,13,3.3,16
2015/2/3 7:28,1.9,13,1.9,13,2.2,13
2015/2/3 7:29,1.9,12,1.9,13,2.1,14
2015/2/3 7:30,1.8,12,1.9,13,1.3,10
2015/2/3 7:31,1.6,12,1.8,13,1.4,10
2015/2/3 7:32,1.5,11,1.6,13,2,8
2015/2/3 7:33,1.3,11,1.5,13,1.6,10
2015/2/3 7:34,1.1,11,1.3,13,1.5,8
2015/2/3 7:35,1.2,11,1.2,13,3.1,13
2015/2/3 7:36,1.2,11,1.2,13,3.1,13
2015/2/3 7:37,1.2,11,1.2,13,2.2,12
2015/2/3 7:38,1.2,11,1.2,13,2,11
2015/2/3 7:39,1.3,11,1.3,12,1.8,11
2015/2/3 7:40,1.2,11,1.3,12,1,11
2015/2/3 7:41,1.2,11,1.2,12,1.3,11
2015/2/3 7:42,1.2,11,1.2,11,1.1,9
2015/2/3 7:43,1.1,11,1.1,11,0.8,1
2015/2/3 7:44,1.1,12,1.1,11,1.6,4
2015/2/3 7:45,1.1,12,1.1,11,2.4,3
2015/2/3 7:46,1,9,1,11,2.5,4
2015/2/3 7:47,0.9,6,1,11,1.1,7
2015/2/3 7:48,0.8,5,0.9,11,1.6,4
2015/2/3 7:49,0.8,4,0.8,10,1.3,6
2015/2/3 7:50,0.9,5,0.9,11,2,7
2015/2/3 7:51,1,5,1,11,2.4,8
2015/2/3 7:52,1,5,1,11,1.9,6
2015/2/3 7:53,1,5,1,11,0.6,15
2015/2/3 7:54,1,6,1,12,0.5,14
2015/2/3 7:55,0.9,6,1,12,1.1,10
2015/2/3 7:56,0.9,7,0.9,9,2.1,13
2015/2/3 7:57,1,8,1,5,2.5,11
2015/2/3 7:58,1.1,9,1.1,9,2.2,12
2015/2/3 7:59,1.1,10,1.1,9,1.8,13
2015/2/3 8:00,1.1,10,1.1,9,1.6,9
2015/2/3 8:01,1,10,1.1,9,1.4,9
2015/2/3 8:02,0.9,10,1,9,1,8
2015/2/3 8:03,0.9,10,0.9,9,0.5,9
2015/2/3 8:04,0.9,11,0.9,9,0.9,13
2015/2/3 8:05,0.9,11,0.9,9,0.6,9
2015/2/3 8:06,0.8,10,0.9,9,0.3,9
2015/2/3 8:07,0.6,10,0.8,9,1,2
2015/2/3 8:08,0.5,9,0.6,9,0.9,3
2015/2/3 8:09,0.4,9,0.5,10,0.1,12
2015/2/3 8:10,0.3,9,0.3,10,0.3,11
2015/2/3 8:11,0.3,9,0.3,10,1,7
2015/2/3 8:12,0.3,8,0.3,10,1.1,8
2015/2/3 8:13,0.3,7,0.3,10,0.1,5
2015/2/3 8:14,0.3,7,0.3,11,0,7
2015/2/3 8:15,0.2,7,0.2,11,0.8,10
2015/2/3 8:16,0.3,7,0.3,10,0.8,9
2015/2/3 8:17,0.3,8,0.3,10,1.6,8
2015/2/3 8:18,0.3,8,0.3,9,1.5,8
2015/2/3 8:19,0.5,8,0.5,8,2,9
2015/2/3 8:20,0.6,8,0.6,8,1.6,8
2015/2/3 8:21,0.6,8,0.6,8,1.5,12
2015/2/3 8:22,0.6,9,0.6,8,1.9,13
2015/2/3 8:23,0.7,10,0.7,9,1.4,12
2015/2/3 8:24,0.8,10,0.8,10,1,11
2015/2/3 8:25,0.8,11,0.8,10,0.6,15
2015/2/3 8:26,0.8,11,0.8,10,0.4,1
2015/2/3 8:27,0.7,12,0.8,10,0.9,14
2015/2/3 8:28,0.8,12,0.8,10,1.4,13
2015/2/3 8:29,0.8,13,0.8,10,1.6,11
2015/2/3 8:30,0.8,12,0.8,10,1.6,10
2015/2/3 8:31,0.8,12,0.8,10,1.3,7
2015/2/3 8:32,0.7,12,0.8,10,1.1,3
2015/2/3 8:33,0.7,13,0.7,10,1.1,1
2015/2/3 8:34,0.7,15,0.7,10,0.8,2
2015/2/3 8:35,0.6,12,0.7,11,0.3,8
2015/2/3 8:36,0.6,12,0.6,11,0.1,9
2015/2/3 8:37,0.6,13,0.6,12,0.1,16
2015/2/3 8:38,0.5,2,0.6,12,0.8,2
2015/2/3 8:39,0.5,2,0.5,13,1.5,16
2015/2/3 8:40,0.4,1,0.4,12,1,16
2015/2/3 8:41,0.4,16,0.4,12,1.1,12
2015/2/3 8:42,0.4,15,0.4,12,2.7,9
2015/2/3 8:43,0.5,14,0.5,13,2.4,9
2015/2/3 8:44,0.6,13,0.6,15,2.5,11
2015/2/3 8:45,0.7,14,0.7,13,2.7,11
2015/2/3 8:46,0.7,13,0.7,13,1.3,9
2015/2/3 8:47,0.9,13,0.9,13,2.1,4
2015/2/3 8:48,1,13,1,13,2.4,2
2015/2/3 8:49,1.1,13,1.1,13,2,2
2015/2/3 8:50,1.2,15,1.2,14,2.2,4
2015/2/3 8:51,1.2,1,1.2,14,1.5,2
2015/2/3 8:52,1.2,2,1.2,14,1.8,3
2015/2/3 8:53,1.2,2,1.2,14,1.8,4
2015/2/3 8:54,1,3,1.1,14,1.4,12
2015/2/3 8:55,1.1,3,1.1,14,1.4,11
2015/2/3 8:56,1,3,1.1,14,0.5,8
2015/2/3 8:57,1,3,1,14,2.5,1
2015/2/3 8:58,1,2,1,14,1.9,16
2015/2/3 8:59,0.9,3,0.9,14,0.9,4
2015/2/3 9:00,0.7,4,0.9,16,0.8,5
2015/2/3 9:01,0.7,5,0.7,1,0.6,4
2015/2/3 9:02,0.6,5,0.7,2,0.8,5
2015/2/3 9:03,0.6,5,0.6,3,0.9,5
2015/2/3 9:04,0.6,5,0.7,3,1,8
2015/2/3 9:05,0.6,5,0.6,3,0.8,1
2015/2/3 9:06,0.6,5,0.6,3,1.5,8
2015/2/3 9:07,0.5,5,0.6,2,1.4,9
2015/2/3 9:08,0.6,6,0.6,2,1.8,8
2015/2/3 9:09,0.7,6,0.7,3,1.9,8
2015/2/3 9:10,0.7,7,0.7,4,1.5,8
2015/2/3 9:11,0.7,8,0.7,5,0.8,10
2015/2/3 9:12,0.7,8,0.7,5,1.1,10
2015/2/3 9:13,0.8,8,0.8,8,1.6,9
2015/2/3 9:14,0.8,8,0.8,8,1,7
2015/2/3 9:15,0.8,8,0.8,8,1.4,7
2015/2/3 9:16,0.8,8,0.8,8,1.3,7
2015/2/3 9:17,0.8,8,0.8,8,0.6,7
2015/2/3 9:18,0.7,8,0.8,8,0.8,9
2015/2/3 9:19,0.6,9,0.7,8,0.9,12
2015/2/3 9:20,0.6,9,0.6,8,0.8,12
2015/2/3 9:21,0.6,10,0.6,8,1.4,12
2015/2/3 9:22,0.7,10,0.7,8,1.8,12
2015/2/3 9:23,0.7,10,0.7,8,1.3,12
2015/2/3 9:24,0.7,11,0.7,8,1,12
2015/2/3 9:25,0.6,11,0.7,8,1.1,13
2015/2/3 9:26,0.6,12,0.6,8,1,14
2015/2/3 9:27,0.6,12,0.6,8,0.4,4
2015/2/3 9:28,0.6,13,0.6,9,0.4,3
2015/2/3 9:29,0.5,13,0.6,10,0.3,4
2015/2/3 9:30,0.5,12,0.5,10,1,9
2015/2/3 9:31,0.4,13,0.5,10,0.5,7
2015/2/3 9:32,0.4,13,0.4,10,0.9,9
2015/2/3 9:33,0.4,12,0.4,10,1.8,9
2015/2/3 9:34,0.4,11,0.4,11,1.3,9
2015/2/3 9:35,0.4,8,0.4,11,1.6,8
2015/2/3 9:36,0.4,8,0.4,12,1.1,8
2015/2/3 9:37,0.5,8,0.5,12,1.1,8
2015/2/3 9:38,0.6,8,0.6,13,2,8
2015/2/3 9:39,0.7,8,0.7,8,2.1,7
2015/2/3 9:40,0.8,8,0.8,8,1.9,5
2015/2/3 9:41,0.9,8,0.9,8,1.4,7
2015/2/3 9:42,0.9,8,0.9,8,0.9,9
2015/2/3 9:43,0.8,8,0.9,8,1,13
2015/2/3 9:44,0.9,8,0.9,8,1.5,8
2015/2/3 9:45,1,8,1,8,2.7,7
2015/2/3 9:46,1.1,8,1.1,8,3.2,7
2015/2/3 9:47,1.2,9,1.2,9,2.4,13
2015/2/3 9:48,1.3,9,1.3,9,3.6,13
2015/2/3 9:49,1.4,10,1.4,10,3.7,13
2015/2/3 9:50,1.6,11,1.6,11,3.2,12
2015/2/3 9:51,1.7,11,1.7,11,3.6,9
2015/2/3 9:52,1.8,11,1.8,11,3.1,9
2015/2/3 9:53,1.9,11,1.9,11,4.1,10
2015/2/3 9:54,2.2,11,2.2,11,4.3,10
2015/2/3 9:55,2.3,11,2.3,11,3.9,11
2015/2/3 9:56,2.4,12,2.4,12,3.7,10
2015/2/3 9:57,2.5,11,2.5,12,3.5,9
2015/2/3 9:58,2.5,11,2.5,12,3.2,10
2015/2/3 9:59,2.5,11,2.5,12,3.5,10
2015/2/3 10:00,2.4,11,2.4,12,3.7,10
2015/2/3 10:01,2.6,11,2.6,11,4.7,10
2015/2/3 10:02,2.7,11,2.7,11,3.8,9
2015/2/3 10:03,2.8,11,2.8,11,4.1,9
2015/2/3 10:04,2.7,11,2.8,11,4.8,10
2015/2/3 10:05,2.7,10,2.7,11,5.2,9
2015/2/3 10:06,2.7,10,2.7,11,4.4,10
2015/2/3 10:07,2.7,10,2.7,11,3.9,10
2015/2/3 10:08,2.8,10,2.8,11,4.4,11
2015/2/3 10:09,2.8,10,2.8,11,4.3,10
2015/2/3 10:10,2.7,10,2.8,11,3.5,8
2015/2/3 10:11,2.6,10,2.7,11,4.2,10
2015/2/3 10:12,2.6,10,2.6,11,3.7,10
2015/2/3 10:13,2.6,10,2.6,11,4.8,10
2015/2/3 10:14,2.5,10,2.6,10,3.2,11
2015/2/3 10:15,2.4,10,2.5,10,3.2,11
2015/2/3 10:16,2.4,10,2.4,10,5,9
2015/2/3 10:17,2.4,10,2.4,10,6.5,10
2015/2/3 10:18,2.3,10,2.4,10,3.7,9
2015/2/3 10:19,2.2,10,2.3,10,2.4,8
2015/2/3 10:20,2.2,10,2.2,10,3.8,9
2015/2/3 10:21,2.2,10,2.3,10,3.6,10
2015/2/3 10:22,2.2,10,2.2,10,3.6,14
2015/2/3 10:23,2.2,10,2.2,10,4.9,10
2015/2/3 10:24,2.2,10,2.2,10,5.6,9
2015/2/3 10:25,2.4,10,2.4,10,7,9
2015/2/3 10:26,2.4,10,2.5,10,6.4,10
2015/2/3 10:27,2.3,10,2.4,10,4.2,9
2015/2/3 10:28,2.3,10,2.3,10,3.7,10
2015/2/3 10:29,2.4,10,2.4,10,4.1,9
2015/2/3 10:30,2.3,10,2.4,10,2.1,12
2015/2/3 10:31,2.3,11,2.3,10,5.2,16
2015/2/3 10:32,2.4,11,2.4,10,5.6,12
2015/2/3 10:33,2.4,11,2.4,10,4.7,14
2015/2/3 10:34,2.4,11,2.4,10,4.8,16
2015/2/3 10:35,2.3,12,2.4,10,4.2,16
2015/2/3 10:36,2.3,13,2.3,10,6.7,16
2015/2/3 10:37,2.5,14,2.5,14,7.5,15
2015/2/3 10:38,2.5,14,2.5,14,7,14
2015/2/3 10:39,2.8,15,2.8,15,9,14
2015/2/3 10:40,3.1,15,3.1,15,8.1,13
2015/2/3 10:41,3.2,15,3.3,15,6.7,1
2015/2/3 10:42,3.5,14,3.5,15,8.7,14
2015/2/3 10:43,3.5,14,3.6,14,6.1,13
2015/2/3 10:44,3.4,14,3.5,14,4.3,15
2015/2/3 10:45,3.5,14,3.5,14,4.7,16
2015/2/3 10:46,3.6,14,3.6,14,5.7,15
2015/2/3 10:47,3.4,14,3.5,14,3.5,14
2015/2/3 10:48,3.4,14,3.5,14,4.3,12
2015/2/3 10:49,3.3,14,3.4,14,8.1,14
2015/2/3 10:50,3.4,14,3.4,14,6.7,14
2015/2/3 10:51,3.3,14,3.4,14,7.9,16
2015/2/3 10:52,2.9,14,3.3,14,2,3
2015/2/3 10:53,2.7,14,2.9,14,3.9,11
2015/2/3 10:54,2.7,14,2.7,14,3.5,12
2015/2/3 10:55,2.7,14,2.7,14,4.3,14
2015/2/3 10:56,2.4,13,2.6,14,3.6,5
2015/2/3 10:57,2.4,13,2.4,14,2.7,14
2015/2/3 10:58,2.4,13,2.5,14,3.9,13
2015/2/3 10:59,2.3,14,2.4,14,3.1,15
2015/2/3 11:00,2,14,2.3,14,3.7,15
2015/2/3 11:01,2,14,2,14,7.2,14
2015/2/3 11:02,2.5,14,2.5,14,8.2,14
2015/2/3 11:03,2.6,14,2.6,14,5.7,14
2015/2/3 11:04,2.7,14,2.7,14,5.7,16
2015/2/3 11:05,2.7,14,2.7,14,3.8,12
2015/2/3 11:06,2.8,14,2.8,14,6.9,15
2015/2/3 11:07,3,14,3,14,5.8,15
2015/2/3 11:08,3,15,3,14,5.5,15
2015/2/3 11:09,3.3,15,3.3,15,7.4,14
2015/2/3 11:10,3.6,15,3.6,15,7.2,16
2015/2/3 11:11,4,15,4,15,10.9,16
2015/2/3 11:12,4,15,4,15,10.5,16
2015/2/3 11:13,4,15,4,15,5.2,14
2015/2/3 11:14,3.8,15,4,15,5.1,15
2015/2/3 11:15,3.7,15,3.8,15,3.7,15
2015/2/3 11:16,3.6,15,3.8,15,4.1,1
2015/2/3 11:17,3.6,15,3.7,15,4.8,16
2015/2/3 11:18,3.4,15,3.6,15,3.1,14
2015/2/3 11:19,3.2,15,3.4,15,4.5,1